N383DF KMKE-KMKE

Flight info

Callsign N383DF
Flight time N/A
Altitude 23000
Route PATERN WORK
Aircraft GLF4/M-SFGHIRWXY/L

Departure

Time 2026-04-29 22:57
Airport General Mitchell International Airport (KMKE)

Arrival

Time N/A
Airport General Mitchell International Airport (KMKE)
Time Latitude Longitude Altitude Speed Heading
2026-04-29 22:44 42.95825 -87.89863 678 ft 0 kts 270°
2026-04-29 22:48 42.95825 -87.89869 678 ft 0 kts 270°
2026-04-29 22:48 42.95825 -87.89870 678 ft 0 kts 270°
2026-04-29 22:49 42.95825 -87.89871 678 ft 0 kts 270°
2026-04-29 22:49 42.95825 -87.89873 678 ft 0 kts 270°
2026-04-29 22:49 42.95825 -87.89874 678 ft 0 kts 270°
2026-04-29 22:49 42.95825 -87.89877 678 ft 0 kts 270°
2026-04-29 22:50 42.95825 -87.89881 678 ft 0 kts 270°
2026-04-29 22:50 42.95825 -87.89885 678 ft 0 kts 269°
2026-04-29 22:50 42.95824 -87.89890 678 ft 1 kts 259°
2026-04-29 22:50 42.95814 -87.89912 678 ft 3 kts 231°
2026-04-29 22:51 42.95772 -87.89893 677 ft 11 kts 106°
2026-04-29 22:51 42.95750 -87.89751 678 ft 17 kts 101°
2026-04-29 22:51 42.95742 -87.89673 678 ft 3 kts 92°
2026-04-29 22:52 42.95730 -87.89587 678 ft 15 kts 103°
2026-04-29 22:52 42.95620 -87.89526 677 ft 19 kts 143°
2026-04-29 22:52 42.95456 -87.89500 675 ft 55 kts 186°
2026-04-29 22:52 42.95110 -87.89562 672 ft 27 kts 188°
2026-04-29 22:53 42.94944 -87.89593 673 ft 20 kts 186°
2026-04-29 22:53 42.94822 -87.89614 675 ft 19 kts 188°
2026-04-29 22:53 42.94673 -87.89642 675 ft 23 kts 190°
2026-04-29 22:53 42.94503 -87.89668 678 ft 24 kts 187°
2026-04-29 22:54 42.94329 -87.89700 679 ft 22 kts 181°
2026-04-29 22:54 42.94175 -87.89734 681 ft 25 kts 202°
2026-04-29 22:54 42.93995 -87.89880 685 ft 46 kts 186°
2026-04-29 22:54 42.93706 -87.89886 690 ft 35 kts 180°
2026-04-29 22:55 42.93527 -87.89896 695 ft 20 kts 182°
2026-04-29 22:55 42.93356 -87.89906 699 ft 30 kts 185°
2026-04-29 22:55 42.93236 -87.89928 701 ft 9 kts 194°
2026-04-29 22:55 42.93189 -87.89947 703 ft 12 kts 196°
2026-04-29 22:56 42.93088 -87.89932 705 ft 8 kts 144°
2026-04-29 22:56 42.93084 -87.89927 705 ft 0 kts 138°
2026-04-29 22:56 42.93070 -87.89877 704 ft 29 kts 98°
2026-04-29 22:56 42.93343 -87.89716 695 ft 101 kts
2026-04-29 22:57 42.94400 -87.89537 1191 ft 187 kts
2026-04-29 22:57 42.95768 -87.89307 1889 ft 223 kts 12°
2026-04-29 22:57 42.97198 -87.88646 3216 ft 224 kts 39°
2026-04-29 22:57 42.96927 -87.86955 2973 ft 220 kts 138°
2026-04-29 22:58 42.95563 -87.86221 2892 ft 213 kts 166°
2026-04-29 22:58 42.94115 -87.85905 2820 ft 209 kts 172°
2026-04-29 22:58 42.92690 -87.85686 2926 ft 198 kts 174°
2026-04-29 22:58 42.91367 -87.85635 2881 ft 191 kts 186°
2026-04-29 22:59 42.90232 -87.86239 2534 ft 165 kts 217°
2026-04-29 22:59 42.89567 -87.87312 2348 ft 124 kts 247°
2026-04-29 22:59 42.89486 -87.88409 1978 ft 111 kts 285°
2026-04-29 22:59 42.89676 -87.89451 1568 ft 117 kts 300°
2026-04-29 23:00 42.90276 -87.89989 1344 ft 105 kts 349°
2026-04-29 23:00 42.90972 -87.90127 1144 ft 117 kts
2026-04-29 23:00 42.91775 -87.90004 988 ft 114 kts
2026-04-29 23:00 42.92602 -87.89845 867 ft 126 kts
2026-04-29 23:01 42.93399 -87.89708 697 ft 108 kts
2026-04-29 23:01 42.94033 -87.89595 681 ft 75 kts
2026-04-29 23:01 42.94624 -87.89500 675 ft 128 kts
2026-04-29 23:01 42.95698 -87.89329 1574 ft 163 kts
2026-04-29 23:02 42.96497 -87.89049 2999 ft 142 kts 19°
2026-04-29 23:02 42.97265 -87.88116 3430 ft 144 kts 47°
2026-04-29 23:02 42.97708 -87.87196 4242 ft 119 kts 48°
2026-04-29 23:02 42.97781 -87.85986 3585 ft 154 kts 108°
2026-04-29 23:03 42.96984 -87.84979 2834 ft 170 kts 163°
2026-04-29 23:03 42.95884 -87.84902 2550 ft 141 kts 180°
2026-04-29 23:03 42.94951 -87.84927 2374 ft 137 kts 181°
2026-04-29 23:03 42.93932 -87.84970 2439 ft 149 kts 181°
2026-04-29 23:04 42.92804 -87.85017 2740 ft 157 kts 184°
2026-04-29 23:04 42.91779 -87.85126 2525 ft 144 kts 185°
2026-04-29 23:04 42.90834 -87.85234 2242 ft 131 kts 184°
2026-04-29 23:04 42.89896 -87.85355 2010 ft 137 kts 186°
2026-04-29 23:05 42.88946 -87.85712 1850 ft 145 kts 203°
2026-04-29 23:05 42.88245 -87.86579 1779 ft 137 kts 237°
2026-04-29 23:05 42.87720 -87.87698 1688 ft 137 kts 244°
2026-04-29 23:05 42.87372 -87.88873 1661 ft 131 kts 261°
2026-04-29 23:06 42.87474 -87.90074 1568 ft 129 kts 294°
2026-04-29 23:06 42.87905 -87.90995 1556 ft 107 kts 323°
2026-04-29 23:06 42.88549 -87.91362 1349 ft 99 kts 13°
2026-04-29 23:06 42.89353 -87.90807 1405 ft 128 kts 30°
2026-04-29 23:07 42.90086 -87.90353 1263 ft 107 kts 11°
2026-04-29 23:07 42.90788 -87.90207 1041 ft 115 kts 13°
2026-04-29 23:07 42.91600 -87.90034 1033 ft 104 kts
2026-04-29 23:07 42.92392 -87.89891 905 ft 113 kts
2026-04-29 23:08 42.93129 -87.89751 724 ft 104 kts
2026-04-29 23:08 42.93755 -87.89642 686 ft 70 kts
2026-04-29 23:08 42.94147 -87.89574 680 ft 58 kts
2026-04-29 23:08 42.94892 -87.89435 1108 ft 142 kts
2026-04-29 23:09 42.95502 -87.89364 2738 ft 73 kts 341°
2026-04-29 23:09 42.96120 -87.89603 2007 ft 108 kts 27°
2026-04-29 23:09 42.96296 -87.88414 2186 ft 189 kts 108°
2026-04-29 23:09 42.95547 -87.86952 2902 ft 170 kts 127°
2026-04-29 23:10 42.94508 -87.86097 2321 ft 178 kts 164°
2026-04-29 23:10 42.93325 -87.85822 2230 ft 159 kts 171°
2026-04-29 23:10 42.92217 -87.85627 1887 ft 179 kts 171°
2026-04-29 23:10 42.90937 -87.85407 1979 ft 186 kts 173°
2026-04-29 23:11 42.89772 -87.85316 1991 ft 150 kts 177°
2026-04-29 23:11 42.88597 -87.85513 2507 ft 172 kts 187°
2026-04-29 23:11 42.87896 -87.86274 2513 ft 126 kts 267°
2026-04-29 23:11 42.88006 -87.87289 2202 ft 104 kts 295°
2026-04-29 23:12 42.88322 -87.88361 1916 ft 139 kts 300°
2026-04-29 23:12 42.88909 -87.89503 1908 ft 153 kts 317°
2026-04-29 23:12 42.89637 -87.90262 2088 ft 97 kts 332°
2026-04-29 23:12 42.90241 -87.90453 1520 ft 104 kts 15°
2026-04-29 23:13 42.90930 -87.90209 1109 ft 112 kts 15°
2026-04-29 23:13 42.91701 -87.90031 958 ft 105 kts
2026-04-29 23:13 42.92477 -87.89878 857 ft 113 kts 11°
2026-04-29 23:13 42.93227 -87.89738 719 ft 111 kts
2026-04-29 23:14 42.93908 -87.89634 683 ft 79 kts
2026-04-29 23:14 42.94319 -87.89534 678 ft 54 kts
2026-04-29 23:14 42.94908 -87.89435 771 ft 131 kts
2026-04-29 23:14 42.95924 -87.89249 1609 ft 164 kts
2026-04-29 23:15 42.96497 -87.89131 3148 ft 45 kts
2026-04-29 23:15 42.96647 -87.88303 1889 ft 182 kts 116°
2026-04-29 23:15 42.95463 -87.88341 1972 ft 168 kts 174°
2026-04-29 23:15 42.94467 -87.88197 1845 ft 129 kts 172°
2026-04-29 23:16 42.93591 -87.88100 1639 ft 139 kts 174°
2026-04-29 23:16 42.92653 -87.88017 1633 ft 139 kts 174°
2026-04-29 23:16 42.91610 -87.87936 1778 ft 158 kts 175°
2026-04-29 23:16 42.90496 -87.87914 1870 ft 158 kts 179°
2026-04-29 23:17 42.89368 -87.87910 1882 ft 169 kts 177°
2026-04-29 23:17 42.88153 -87.87845 2024 ft 178 kts 176°
2026-04-29 23:17 42.87058 -87.88145 2264 ft 137 kts 234°
2026-04-29 23:17 42.86849 -87.89208 1970 ft 110 kts 274°
2026-04-29 23:18 42.87107 -87.90171 1710 ft 116 kts 327°
2026-04-29 23:18 42.87892 -87.90474 1705 ft 128 kts 355°
2026-04-29 23:18 42.88742 -87.90485 1621 ft 115 kts
2026-04-29 23:18 42.89542 -87.90382 1461 ft 116 kts
2026-04-29 23:19 42.90395 -87.90237 1333 ft 128 kts
2026-04-29 23:19 42.91208 -87.90098 1129 ft 106 kts
2026-04-29 23:19 42.91964 -87.89962 965 ft 123 kts
2026-04-29 23:19 42.92779 -87.89813 827 ft 111 kts
2026-04-29 23:20 42.93469 -87.89693 693 ft 86 kts
2026-04-29 23:20 42.93978 -87.89603 682 ft 72 kts
2026-04-29 23:20 42.94528 -87.89512 675 ft 104 kts
2026-04-29 23:20 42.95348 -87.89365 1338 ft 103 kts
2026-04-29 23:21 42.96050 -87.89146 1732 ft 107 kts 38°
2026-04-29 23:21 42.95887 -87.88204 2352 ft 147 kts 187°
2026-04-29 23:21 42.95182 -87.88493 2662 ft 127 kts 217°
2026-04-29 23:21 42.94240 -87.88790 1819 ft 140 kts 184°
2026-04-29 23:22 42.93329 -87.88907 1453 ft 134 kts 195°
2026-04-29 23:22 42.93158 -87.89870 846 ft 132 kts 345°
2026-04-29 23:22 42.93921 -87.89630 701 ft 101 kts 13°
2026-04-29 23:22 42.94548 -87.89512 675 ft 80 kts